Location: Plateau_FTFHS
(35.6000°N, 81.3500°W)
Time: 15:12:53
(UTC-04:00)

Daily predictions for brighter satellites

Satellite Brightness Start Highest point End
(mag) Time Altitude Azimuth Time Altitude Azimuth Time Altitude Azimuth
Cosmos 1745 Rocket 4.3 20:50:13 10° N 20:56:34 76° W 21:02:50 10° S
Cosmos 2315 Rocket 4.2 20:51:13 10° SSE 20:57:16 55° E 21:03:24 10° NNE
NOSS 3-2 (A) 4.1 20:51:15 10° NNW 20:58:57 85° ENE 21:07:11 10° SSE
NOSS 3-4 (A) 4.2 20:53:03 10° SW 20:59:16 62° NW 21:05:40 10° NNE
Cosmos 1812 2.7 20:55:28 10° S 20:59:20 82° E 21:03:13 10° N
NOSS 3-4 (C) 4.2 20:53:09 10° SW 20:59:22 63° NW 21:05:48 10° NNE
USA 186 2.0 20:56:26 10° SSE 20:59:36 54° ENE 21:02:45 10° N
CENTAUR R/B 4.2 20:53:48 10° NNW 21:00:37 31° NE 21:07:48 10° ESE
Cosmos 2263 4.4 20:57:46 10° NNW 21:03:31 63° ENE 21:09:11 10° SSE
CZ-2D R/B 3.3 20:59:52 10° SSE 21:03:42 86° W 21:07:32 10° NNW
NOSS 2-2 (C) 4.0 21:04:10 10° S 21:07:45 33° ESE 21:11:35 10° NE
Spot 2 Rocket 3.7 21:04:55 10° S 21:09:57 78° WSW 21:15:01 10° NNW
Cosmos 1536 Rocket 4.1 21:09:49 10° SSE 21:13:47 37° E 21:17:46 10° NNE
ASTRO E2 3.2 21:11:58 10° WSW 21:15:46 42° S 21:19:15 12° ESE
Helios 1A 3.0 21:20:10 10° SSE 21:24:21 66° ENE 21:28:33 10° N
Resurs 01 Rocket 3.0 21:25:30 10° SSW 21:29:38 38° W 21:33:46 10° NNW
Envisat 3.0 21:26:48 10° SSE 21:31:52 83° ENE 21:36:58 10° N
Cosmos 292 Rocket 4.0 21:27:14 10° SSW 21:32:04 78° WNW 21:36:55 10° NNE
Cosmos 1544 Rocket 3.5 21:30:01 10° N 21:34:21 87° E 21:38:40 10° S
SPOT 5 4.5 21:34:31 13° E 21:36:16 16° ENE 21:38:50 10° NNE
Iridium 4 Rocket 4.0 21:34:43 10° N 21:39:39 62° W 21:45:01 10° SSW
Cosmos 1666 3.9 21:37:58 10° NNE 21:41:05 24° ENE 21:42:13 21° ESE
Meteor 1-19 Rocket 4.3 21:40:46 10° S 21:46:30 62° E 21:52:12 10° NNE
Cosmos 1025 Rocket 4.2 21:45:55 21° ESE 21:46:49 23° E 21:50:10 10° NE
ASTEX 1 3.8 21:43:57 20° SE 21:47:01 43° E 21:51:40 10° N
Aureole 3 Rocket 3.9 21:46:32 10° S 21:53:58 70° E 21:59:13 10° NNE
NOSS 2-2 (E) 4.0 21:52:36 10° SW 21:56:31 58° NW 22:00:56 10° NNE
Cosmos 1455 Rocket 3.7 21:55:33 10° NNW 21:59:50 55° W 22:03:42 12° S
Cosmos 923 Rocket 4.0 21:56:00 10° SSW 22:01:19 87° WNW 22:06:40 10° NNE
Cosmos 1975 3.9 21:58:26 10° NNW 22:02:18 44° W 22:06:01 11° SSW
Cosmos 405 Rocket 2.6 21:59:12 14° S 22:02:19 83° W 22:06:07 10° N
Cosmos 2369 Rocket 4.0 21:57:43 10° NW 22:02:22 27° WSW 22:07:01 10° SSW
Cosmos 1346 2.7 22:03:17 50° S 22:03:54 89° NE 22:06:40 10° N
Cosmos 1238 Rocket 4.2 22:00:12 17° SSE 22:05:19 59° E 22:11:53 10° NNE
Helios 1B rocket 4.3 22:02:45 10° N 22:06:26 32° WNW 22:10:06 10° SW
YAOGAN 6 2.6 22:05:25 29° S 22:07:03 71° W 22:10:33 10° NNW
Cosmos 1656 Rocket 3.6 22:02:02 10° NNW 22:07:29 70° ENE 22:10:13 30° SE
Tiangong 2 0.9 22:04:58 10° SW 22:08:07 71° SSE 22:08:38 56° E
H-2A R/B 4.4 22:08:01 11° ENE 22:08:40 11° ENE 22:09:47 10° NE
MetOp-A 4.3 22:06:11 28° SE 22:08:51 58° ENE 22:14:06 10° N
Cosmos 1939 Rocket 4.1 22:09:19 13° SSW 22:12:23 35° W 22:15:57 10° NNW
ISS -1.4 22:09:32 10° SSW 22:09:53 12° SSW 22:09:53 12° SSW
COSMOS 2455 3.2 22:08:20 10° NW 22:14:15 59° WSW 22:18:02 22° S
Cosmos 1441 Rocket 3.0 22:15:21 45° SSE 22:16:21 72° E 22:20:05 10° NNE
Cosmos 1943 Rocket 3.4 22:16:19 10° NW 22:21:20 35° WSW 22:25:31 14° SSW
OAO 2 Rocket 3.1 22:18:14 10° WSW 22:23:12 78° S 22:25:27 33° E
Cosmos 2327 Rocket 4.5 22:17:13 10° N 22:23:25 87° W 22:27:15 25° S
ERS-1 Rocket 3.1 22:21:30 28° S 22:24:09 73° WSW 22:29:11 10° NNW
H-2A R/B 2.7 22:24:04 32° E 22:25:03 35° ENE 22:29:32 10° N
NOAA 11 4.1 22:22:31 32° SSE 22:25:08 86° ENE 22:30:36 10° NNW
COSMOS 2406 3.7 22:20:39 10° SSW 22:26:18 62° WNW 22:31:59 10° NNE
Okean 1-7 Rocket 3.5 22:25:22 39° S 22:27:00 83° E 22:31:29 10° N
USA 267 3.8 22:27:10 10° ENE 22:32:18 33° ESE 22:32:18 33° ESE
ARGOS 3.1 22:32:24 42° SSE 22:34:14 75° ENE 22:39:40 10° N
Cosmos 2112 Rocket 4.3 22:29:04 10° SSW 22:34:15 66° WNW 22:39:27 10° NNE
CZ-3B Rocket 4.2 22:34:07 10° SSW 22:53:53 - ESE 22:35:28 17° SSW
Cosmos 2082 Rocket 3.7 22:43:04 21° ENE 22:43:04 21° ENE 22:45:51 10° NE
DNEPR-1 R/B 3.5 22:39:06 10° NNW 22:43:23 72° ENE 22:43:52 65° ESE
Cosmos 1892 Rocket 3.9 22:44:34 49° ENE 22:44:34 49° ENE 22:48:28 10° NNE
SL-24 DEB 4.2 22:44:02 61° ESE 22:44:22 63° E 22:48:57 10° N
Intercosmos 24 3.6 22:42:36 10° N 22:46:21 80° NNW 22:46:21 80° NNW
Cosmos 2181 Rocket 4.1 22:46:01 45° SE 22:47:40 58° E 22:53:51 10° NNE
Okean 2 3.3 22:48:38 78° SW 22:48:49 81° W 22:52:55 10° N
CENTAUR R/B 3.3 22:43:55 10° NW 22:51:56 68° WSW 22:55:43 36° S
SL-27 R/B 4.0 22:50:51 27° WSW 22:52:10 36° WNW 22:55:36 10° N
Cosmos 2228 4.3 22:50:49 10° NNE 22:53:47 29° NE 22:53:47 29° NE
YAOGAN 11 4.5 22:54:49 49° SW 22:55:24 53° W 22:59:37 10° NNW
ASTRO E2 4.4 22:52:18 10° WSW 22:54:10 24° WSW 22:54:10 24° WSW
Cosmos 1437 Rocket 3.2 22:54:25 10° N 22:57:30 56° N 22:57:30 56° N
Cosmos 921 Rocket 4.2 22:57:15 10° N 23:00:46 33° NE 23:00:46 33° NE
Cosmos 1606 Rocket 3.5 22:57:42 10° N 23:01:41 75° NNE 23:01:41 75° NNE
Cosmos 2056 Rocket 3.6 22:59:05 10° N 23:04:11 59° ENE 23:04:17 58° ENE
Cosmos 405 4.3 23:01:35 10° NNW 23:04:29 37° WNW 23:04:29 37° WNW
Cosmos 1697 Rocket 4.3 23:07:24 10° N 23:11:33 21° ENE 23:12:12 20° ENE
Cosmos 1726 Rocket 3.8 23:09:04 10° N 23:12:47 65° NNW 23:12:47 65° NNW
SPOT 5 3.6 23:13:46 37° WSW 23:14:01 38° W 23:18:03 10° NNW
Cosmos 1295 Rocket 4.3 23:09:29 10° N 23:15:41 82° E 23:16:35 67° SSE
SPOT 1/Viking Rocket 3.7 23:15:22 57° SW 23:15:57 61° WSW 23:21:04 10° NNW
Landsat 7 3.8 23:17:21 80° NNW 23:17:21 80° NNW 23:21:52 10° NNW
Cosmos 2058 Rocket 3.5 23:12:54 10° N 23:16:28 56° NNE 23:16:28 56° NNE
CARTOSAT-1 4.2 23:19:44 49° NNE 23:19:44 49° NNE 23:23:05 10° N
SL-19 R/B 4.1 23:14:19 10° NNE 23:19:21 70° ENE 23:19:21 70° ENE
CZ-4B R/B 4.3 23:16:21 10° NNE 23:19:53 38° ENE 23:19:53 38° ENE
Cosmos 839 Rocket 4.5 23:17:15 10° NNW 23:23:53 65° ENE 23:25:33 52° ESE
Cosmos 1833 Rocket 3.2 23:28:30 47° ENE 23:28:30 47° ENE 23:32:46 10° NNE
Cosmos 1066 Rocket 4.1 23:28:37 75° NE 23:28:37 75° NE 23:33:50 10° N
Terra 2.1 23:32:52 65° NNW 23:32:52 65° NNW 23:36:56 10° NNW
Cosmos 1452 Rocket 4.2 23:31:29 10° N 23:35:54 44° NE 23:35:54 44° NE
Cosmos 1656 4.2 23:31:23 10° N 23:36:13 45° NE 23:36:13 45° NE
SL-8 Rocket 3.9 23:35:58 10° N 23:42:13 82° W 23:42:35 78° SW
H-2A R/B 3.0 23:45:08 48° NW 23:45:08 48° NW 23:48:33 10° NNW
Cosmos 2366 rocket 3.9 23:39:33 10° N 23:45:36 77° ENE 23:45:36 77° ENE
